TimeCST,TemperatureF,Dew PointF,Humidity,Sea Level PressureIn,VisibilityMPH,Wind Direction,Wind SpeedMPH,Gust SpeedMPH,PrecipitationIn,Events,Conditions,WindDirDegrees,DateUTC
12:12 AM,32.0,29.7,91,29.37,10.0,WSW,11.5,-,N/A,,Scattered Clouds,240,2014-01-04 06:12:00
12:32 AM,33.1,30.6,90,29.36,10.0,WSW,11.5,-,N/A,,Mostly Cloudy,240,2014-01-04 06:32:00
12:53 AM,33.4,30.7,90,29.37,10.0,WSW,12.7,19.6,N/A,,Overcast,240,2014-01-04 06:53:00
1:12 AM,33.8,31.1,90,29.38,10.0,West,13.8,-,N/A,,Overcast,260,2014-01-04 07:12:00
1:32 AM,33.8,31.1,90,29.40,10.0,West,13.8,-,N/A,,Overcast,260,2014-01-04 07:32:00
1:53 AM,28.9,25.3,86,29.44,10.0,West,25.3,35.7,N/A,,Overcast,280,2014-01-04 07:53:00
2:12 AM,21.6,18.1,87,29.47,7.0,West,25.3,36.8,N/A,,Overcast,270,2014-01-04 08:12:00
2:32 AM,19.9,16.7,87,29.48,7.0,West,18.4,28.8,N/A,,Overcast,280,2014-01-04 08:32:00
2:53 AM,18.5,15.4,88,29.50,7.0,West,19.6,32.2,N/A,,Overcast,280,2014-01-04 08:53:00
3:13 AM,18.5,15.3,87,29.52,7.0,WNW,20.7,26.5,N/A,,Overcast,290,2014-01-04 09:13:00
3:32 AM,19.2,15.8,87,29.55,7.0,West,17.3,25.3,N/A,,Overcast,280,2014-01-04 09:32:00
3:52 AM,19.2,14.9,83,29.58,10.0,WNW,18.4,27.6,N/A,,Overcast,300,2014-01-04 09:52:00
4:12 AM,17.4,12.2,80,29.60,10.0,NW,17.3,31.1,N/A,,Overcast,310,2014-01-04 10:12:00
4:33 AM,15.8,10.8,80,29.63,10.0,NW,16.1,25.3,N/A,,Overcast,310,2014-01-04 10:33:00
4:52 AM,14.4,8.6,78,29.65,10.0,NW,18.4,24.2,N/A,,Mostly Cloudy,310,2014-01-04 10:52:00
5:12 AM,12.6,6.8,78,29.67,10.0,NW,17.3,24.2,N/A,,Clear,310,2014-01-04 11:12:00
5:32 AM,10.9,4.8,76,29.70,10.0,NW,19.6,25.3,N/A,,Clear,310,2014-01-04 11:32:00
5:52 AM,9.5,3.7,77,29.74,10.0,NW,16.1,25.3,N/A,,Clear,310,2014-01-04 11:52:00
6:12 AM,9.3,3.7,78,29.77,10.0,WNW,15.0,23.0,N/A,,Mostly Cloudy,300,2014-01-04 12:12:00
6:32 AM,9.9,4.5,79,29.79,10.0,NW,18.4,27.6,N/A,,Overcast,310,2014-01-04 12:32:00
6:53 AM,9.5,4.5,80,29.80,10.0,NW,20.7,28.8,N/A,,Overcast,320,2014-01-04 12:53:00
7:12 AM,9.3,4.1,79,29.82,10.0,NNW,18.4,32.2,N/A,,Overcast,330,2014-01-04 13:12:00
7:32 AM,9.1,3.7,79,29.83,7.0,NW,17.3,25.3,N/A,Snow,Light Snow,320,2014-01-04 13:32:00
7:53 AM,9.1,3.7,79,29.86,10.0,NW,15.0,23.0,N/A,,Overcast,320,2014-01-04 13:53:00
8:12 AM,9.0,3.2,77,29.87,7.0,NW,18.4,27.6,N/A,,Overcast,320,2014-01-04 14:12:00
8:33 AM,8.4,2.3,76,29.89,7.0,NW,16.1,26.5,N/A,,Overcast,320,2014-01-04 14:33:00
8:52 AM,8.1,1.9,76,29.90,10.0,NW,15.0,18.4,N/A,,Mostly Cloudy,320,2014-01-04 14:52:00
9:12 AM,7.7,1.4,75,29.92,10.0,NW,10.4,18.4,N/A,,Scattered Clouds,310,2014-01-04 15:12:00
9:33 AM,8.2,1.4,74,29.93,10.0,NW,15.0,18.4,N/A,,Clear,320,2014-01-04 15:33:00
9:52 AM,8.4,0.5,70,29.94,10.0,NNW,15.0,19.6,N/A,,Clear,330,2014-01-04 15:52:00
10:12 AM,8.6,0.7,70,29.94,10.0,NW,12.7,19.6,N/A,,Clear,320,2014-01-04 16:12:00
10:32 AM,8.6,1.0,71,29.95,10.0,NW,12.7,-,N/A,,Clear,320,2014-01-04 16:32:00
10:52 AM,8.6,0.7,70,29.94,10.0,NW,16.1,19.6,N/A,,Clear,320,2014-01-04 16:52:00
11:11 AM,8.8,0.5,69,29.96,10.0,NW,15.0,18.4,N/A,,Clear,320,2014-01-04 17:11:00
11:32 AM,8.4,0.3,70,29.96,10.0,NW,13.8,19.6,N/A,,Clear,320,2014-01-04 17:32:00
11:53 AM,7.7,-0.8,68,29.96,10.0,NW,15.0,21.9,N/A,,Clear,310,2014-01-04 17:53:00
12:12 PM,7.5,-1.3,67,29.98,10.0,NW,15.0,24.2,N/A,,Clear,310,2014-01-04 18:12:00
12:32 PM,7.5,-1.7,66,29.99,10.0,NW,15.0,20.7,N/A,,Clear,310,2014-01-04 18:32:00
12:52 PM,7.5,-2.2,65,30.02,10.0,NW,11.5,19.6,N/A,,Clear,310,2014-01-04 18:52:00
1:12 PM,7.7,-2.2,64,30.02,10.0,WNW,13.8,17.3,N/A,,Clear,300,2014-01-04 19:12:00
1:32 PM,6.8,-4.0,61,30.02,10.0,WNW,17.3,20.7,N/A,,Clear,300,2014-01-04 19:32:00
1:52 PM,7.2,-4.5,59,30.04,10.0,NW,13.8,23.0,N/A,,Clear,310,2014-01-04 19:52:00
2:12 PM,7.0,-4.7,59,30.05,10.0,WNW,15.0,19.6,N/A,,Clear,300,2014-01-04 20:12:00
2:32 PM,6.6,-4.7,60,30.06,10.0,WNW,15.0,20.7,N/A,,Clear,300,2014-01-04 20:32:00
2:52 PM,5.9,-5.1,61,30.09,10.0,WNW,16.1,19.6,N/A,,Clear,290,2014-01-04 20:52:00
3:12 PM,5.5,-4.9,62,30.09,10.0,NW,13.8,19.6,N/A,,Clear,320,2014-01-04 21:12:00
3:31 PM,5.0,-4.7,64,30.09,10.0,NW,10.4,17.3,N/A,,Clear,310,2014-01-04 21:31:00
3:52 PM,4.3,-5.3,65,30.09,10.0,NW,11.5,20.7,N/A,,Clear,310,2014-01-04 21:52:00
4:12 PM,3.9,-4.9,67,30.09,10.0,WNW,15.0,19.6,N/A,,Clear,300,2014-01-04 22:12:00
4:32 PM,3.0,-5.3,68,30.11,10.0,WNW,11.5,19.6,N/A,,Clear,300,2014-01-04 22:32:00
4:53 PM,1.9,-5.8,70,30.13,10.0,WNW,10.4,16.1,N/A,,Clear,300,2014-01-04 22:53:00
5:13 PM,0.9,-6.3,72,30.14,10.0,WNW,10.4,-,N/A,,Clear,290,2014-01-04 23:13:00
5:32 PM,-0.0,-7.2,72,30.14,10.0,WNW,11.5,16.1,N/A,,Clear,300,2014-01-04 23:32:00
5:52 PM,-0.8,-7.8,72,30.15,10.0,WNW,10.4,-,N/A,,Clear,290,2014-01-04 23:52:00
6:13 PM,-1.3,-8.1,73,30.15,10.0,WNW,10.4,-,N/A,,Clear,290,2014-01-05 00:13:00
6:32 PM,-1.8,-8.5,73,30.16,10.0,WNW,9.2,-,N/A,,Clear,300,2014-01-05 00:32:00
6:52 PM,-2.2,-8.7,74,30.18,10.0,WNW,8.1,-,N/A,,Clear,300,2014-01-05 00:52:00
7:12 PM,-2.4,-8.7,75,30.18,10.0,WNW,8.1,-,N/A,,Clear,300,2014-01-05 01:12:00
7:32 PM,-2.7,-8.7,76,30.19,10.0,WNW,8.1,-,N/A,,Clear,290,2014-01-05 01:32:00
7:52 PM,-3.1,-8.9,76,30.20,10.0,WNW,9.2,-,N/A,,Clear,300,2014-01-05 01:52:00
8:12 PM,-3.5,-9.4,76,30.20,10.0,WNW,6.9,-,N/A,,Clear,300,2014-01-05 02:12:00
8:32 PM,-4.0,-9.8,76,30.21,10.0,NW,10.4,-,N/A,,Clear,310,2014-01-05 02:32:00
8:52 PM,-4.4,-10.5,75,30.21,10.0,NW,10.4,-,N/A,,Clear,320,2014-01-05 02:52:00
9:12 PM,-4.5,-11.2,73,30.22,10.0,NW,8.1,-,N/A,,Clear,320,2014-01-05 03:12:00
9:33 PM,-4.9,-11.6,73,30.23,10.0,NW,8.1,-,N/A,,Clear,310,2014-01-05 03:33:00
9:52 PM,-4.9,-11.9,72,30.23,10.0,NW,9.2,-,N/A,,Clear,310,2014-01-05 03:52:00
10:12 PM,-5.4,-12.5,72,30.24,10.0,NW,8.1,-,N/A,,Clear,310,2014-01-05 04:12:00
10:33 PM,-6.2,-13.0,72,30.25,10.0,NW,5.8,-,N/A,,Clear,310,2014-01-05 04:33:00
10:52 PM,-6.9,-13.5,73,30.25,10.0,WNW,6.9,-,N/A,,Clear,300,2014-01-05 04:52:00
11:12 PM,-7.8,-13.9,75,30.25,10.0,WNW,5.8,-,N/A,,Clear,300,2014-01-05 05:12:00
11:33 PM,-8.1,-14.1,75,30.25,10.0,WNW,6.9,-,N/A,,Clear,300,2014-01-05 05:33:00
11:52 PM,-8.5,-14.6,75,30.26,10.0,Calm,Calm,-,N/A,,Clear,0,2014-01-05 05:52:00